Погода в Васильсурске

Россия / Нижегородская область     56°07′46″N   46°01′05″E
темп.,
°C
ветер,
м/с
пор.,
м/с
влажн.,
%
обл.,
%
осадки,
мм/ч
давл.,
гПа
погр.,
м
17 мая, пн
пн1700:00+16зсз129513 0.2 101523
03:00+14юз2295100 0.6 101616
06:00+17зсз1189100 0.4 101658
09:00+22всв116798 0.4 1017383
12:00+26в21497 0.0 10161058
15:00+28юв12475 0.0 10161478
18:00+26в12665 0.0 101657
21:00+18в238768 0.9 101745
18 мая, вт
вт1800:00+17в259222 0.3 101779
03:00+15в279571 0.3 1017142
06:00+17вюв298684 0.0 1018314
09:00+23вюв47599 0.0 1018575
12:00+27вюв56515 0.0 10171132
15:00+28вюв56485 0.0 10171393
18:00+25вюв410635 0.0 1016655
21:00+20в413715 0.0 1017375
19 мая, ср
ср1900:00+18вюв313705 0.0 1017338
03:00+16вюв4137210 0.0 1017366
06:00+18вюв312695 0.0 1017413
09:00+22вюв585417 0.0 1017743
12:00+25вюв68475 0.0 10171119
15:00+25вюв68430 0.0 10171187
18:00+23вюв410570 0.0 1016843
21:00+18в413740 0.0 1016374
20 мая, чт
чт2000:00+17вюв414720 0.0 1016403
03:00+16вюв413770 0.0 1016362
06:00+17юв413700 0.0 1016487
09:00+22юв59550 0.0 1015715
12:00+24юв610460 0.0 10141794
15:00+25юв610450 0.0 10132023
18:00+22юв512550 0.0 10121983
21:00+18юв513668 0.0 1012562
21 мая, пт
пт2100:00+14ююв248899 0.0 101199
03:00+13ю229465 0.0 101138
06:00+15ю2482100 0.0 1012257
09:00+19ююз3565100 0.1 10111176
12:00+21ююз575268 0.3 10111802
15:00+21ююз5847100 0.3 10112185
18:00+14ю3128796 1.3 1012599
21:00+14ю412915 1.3 1012521